CAPE
0 0 0 0 0 0 0 0 0 0 0 0 0 0 0 0 0 0 0 0 0 0 0 0 0 0 0 0 0 0 0 0
0 0 0 0 0 0 0 0 0 0 0 0 0 0 0 0 0 0 0 0 0 0 0 0 0 0 0 0 0 0 0 0
0 0 0 0 0 0 0 0 0 0 0 0 0 0 0 0 0 0 0 0 0 0 0 0 0 0 0 0 0 0 0 0
0 0 0 0 0 0 0 0 0 0 0 0 0 0 0 0 0 0 0 0 0 0 0 0 0 0 0 0 0 0 0 0
0 0 0 0 0 0 0 0 0 0 0 0 0 0 0 0 0 0 0 0 0 0 0 0 0 0 0 0 0 0 0 0
0 0 0 0 0 0 0 0 0 0 0 0 0 0 0 0 0 0 0 0 0 0 0 0 0 0 0 0 0 0 0 0
0 0 0 0 0 0 0 0 0 0 0 0 0 0 0 0 0 0 0 0 0 0 0 0 0 0 0 0 0 0 0 0
0 0 0 0 0 0 0 0 0 0 0 0 0 0 0 0 0 0 0 0 0 0 0 0 0 0 0 0 0 0 0 0
0 0 0 0 0 0 0 0 0 0 0 0 0 0 0 0 0 0 0 0 0 0 0 0 0 0 0 0 0 0 0 0
0 0 0 0 0 0 0 0 0 0 0 0 0 0 0 0 0 0 0 0 0 0 0 0 0 0 0 0 0 1 0 0
0 0 0 0 0 0 0 0 0 0 0 0 0 0 0 0 0 0 0 0 0 0 0 0 0 0 0 0 0 0 0 0
0 0 0 0 0 0 0 0 0 0 0 0 0 0 0 0 0 0 0 0 0 0 0 0 0 0 0 0 0 0 0 0
0 0 0 0 0 0 0 0 0 0 0 0 0 0 0 0 0 0 0 0 0 0 0 0 0 0 0 0 0 2 0 0
0 0 0 0 0 0 0 0 0 0 0 0 0 0 0 0 0 0 0 0 0 0 0 0 0 0 0 0 0 0 0 0
0 0 0 0 0 0 0 0 0 0 0 0 0 0 0 0 0 0 0 0 0 0 0 0 0 0 0 0 0 0 0 0
0 0 0 0 0 0 0 0 0 0 0 0 0 0 0 0 0 0 0 0 0 0 0 0 0 0 5 6 3 3 6 18
0 0 0 0 0 0 0 0 0 0 0 0 0 0 0 0 0 0 0 0 0 2 2 0 5 6 14 17 18 20 24 13
0 0 0 0 0 0 0 0 0 0 0 0 0 0 0 0 0 0 0 0 0 0 0 0 4 2 5 11 6 1 0 0
0 0 0 0 0 0 0 0 0 0 0 0 0 0 0 0 0 0 0 0 0 0 0 0 0 0 2 1 0 0 0 0
0 0 0 0 0 0 0 0 0 0 0 0 0 0 0 0 0 0 0 0 0 0 0 0 0 0 0 0 0 0 0 0
CIN
0 0 0 0 0 0 0 0 0 0 0 0 0 0 0 0 0 0 0 0 0 0 0 0 0 0 0 0 0 0 0 0
0 0 0 0 0 0 0 0 0 0 0 0 0 0 0 0 0 0 0 0 0 0 0 0 0 0 0 0 0 0 0 0
0 0 0 0 0 0 0 0 0 0 0 0 0 0 0 0 0 0 0 0 0 0 0 0 0 0 0 0 0 0 0 0
0 0 0 0 0 0 0 0 0 0 0 0 0 0 0 0 0 0 0 0 0 0 0 0 0 0 0 0 0 0 0 0
0 0 0 0 0 0 0 0 0 0 0 0 0 0 0 0 0 0 0 0 0 0 0 0 0 0 0 0 0 0 0 0
0 0 0 0 0 0 0 0 0 0 0 0 0 0 0 0 0 0 0 0 0 0 0 0 0 0 0 0 0 0 0 0
0 0 0 0 0 0 0 0 0 0 0 0 0 0 0 0 0 0 0 0 0 0 0 0 0 0 0 0 0 0 0 0
0 0 0 0 0 0 0 0 0 0 0 0 0 0 0 0 0 0 0 0 0 0 0 0 0 0 0 0 0 0 0 0
0 0 0 0 0 0 0 0 0 0 0 0 0 0 0 0 0 0 0 0 0 0 0 0 0 0 0 0 0 0 0 0
0 0 0 0 0 0 0 0 0 0 0 0 0 0 0 0 0 0 0 0 0 0 0 0 0 0 0 0 0 0 0 0
0 0 0 0 0 0 0 0 0 0 0 0 0 0 0 0 0 0 0 0 0 0 0 0 0 0 0 -1 0 0 0 0
0 0 0 0 0 0 0 0 0 0 0 0 0 0 0 0 0 0 0 0 0 0 0 0 0 0 0 0 -1 0 0 0
0 0 0 0 0 0 0 0 0 0 0 0 0 0 0 0 0 0 0 0 0 0 0 0 0 0 0 0 -2 -3 -5 0
0 0 0 0 0 0 0 0 0 0 0 0 0 0 0 0 0 0 0 0 0 0 0 0 0 0 0 0 0 0 0 0
0 0 0 0 0 0 0 0 0 0 0 0 0 0 0 0 0 0 0 0 0 0 0 0 0 0 0 0 0 0 0 0
0 0 0 0 0 0 0 0 0 0 0 0 0 0 0 0 0 0 0 0 0 0 0 0 0 0 -4 -3 -6 -2 -9 -3
0 0 0 0 0 0 0 0 0 0 0 0 0 0 0 0 0 0 0 0 -1 -1 -3 0 -1 -2 -2 -2 -3 -4 -3 -3
0 0 0 0 0 0 0 0 0 0 0 0 0 0 0 0 0 0 0 0 0 0 -1 -1 -1 -2 -2 -2 -3 -3 -1 0
0 0 0 0 0 0 0 0 0 0 0 0 0 0 0 0 0 0 0 0 0 0 0 0 0 -1 -2 -1 0 0 0 0
0 0 0 0 0 0 0 0 0 0 0 0 0 0 0 0 0 0 0 0 0 0 0 0 0 0 0 0 0 0 0 0
Wind_Speed
21 23 24 24 25 25 26 27 28 29 31 32 34 35 36 37 39 40 41 42 42 42 42 43 42 42 42 43 43 43 42 42
24 25 25 25 25 26 27 28 29 30 32 33 35 36 37 39 40 41 41 42 44 45 45 46 46 46 45 45 45 46 47 45
26 26 25 26 26 27 27 28 29 30 32 34 35 37 39 41 42 43 45 44 46 48 49 49 50 50 49 50 49 49 50 49
28 27 27 27 26 27 28 29 29 30 33 36 37 40 42 43 44 45 47 49 50 51 53 53 54 55 54 54 55 54 53 52
27 26 26 26 27 27 28 28 30 32 35 38 40 41 44 46 47 48 48 51 53 54 56 57 56 56 57 58 58 58 57 56
26 26 26 26 27 28 29 30 31 34 37 39 41 43 45 47 48 49 51 53 55 57 58 58 59 58 59 59 61 62 63 61
28 27 27 28 28 28 29 29 31 34 37 39 42 44 45 46 48 51 54 56 57 58 59 61 59 58 60 61 62 62 65 66
28 27 27 28 28 27 27 28 31 35 37 40 41 42 45 48 52 55 57 57 58 58 58 60 60 60 61 61 62 64 66 67
26 27 27 25 24 24 25 29 32 35 37 38 39 43 47 49 52 54 54 56 57 57 57 58 58 60 61 61 61 62 63 63
26 26 24 22 22 24 28 30 34 36 36 37 41 44 46 49 51 52 53 53 53 53 54 56 57 58 58 57 56 56 58 57
26 23 21 21 22 26 29 32 35 34 37 39 41 44 47 49 51 50 48 50 50 52 51 52 54 52 51 49 47 48 49 49
21 20 19 20 24 28 30 34 33 35 37 39 41 44 45 48 48 48 48 48 49 49 49 49 47 45 45 44 43 43 47 48
20 21 21 23 26 31 33 32 33 34 37 39 40 42 44 46 46 44 45 46 47 49 49 46 42 38 39 40 42 43 45 49
21 22 22 25 28 32 32 32 33 35 38 40 40 41 42 45 45 44 43 44 47 48 49 49 41 37 37 39 38 40 40 38
22 24 26 26 28 30 31 31 33 37 39 40 41 44 43 41 39 40 43 45 45 42 42 42 40 39 37 37 37 36 36 36
23 24 26 26 28 29 29 30 33 36 38 39 41 43 43 39 39 41 40 39 44 46 46 47 46 41 38 43 42 41 40 44
24 25 27 28 29 29 27 28 32 35 37 39 41 42 41 41 45 39 40 41 40 43 41 40 41 46 47 47 44 43 42 42
26 27 29 30 29 28 27 27 30 34 37 39 40 40 41 43 46 49 48 43 39 39 41 41 45 47 47 46 46 44 40 37
27 29 29 29 30 28 27 28 31 34 36 37 38 38 42 43 44 44 45 46 47 42 42 41 43 45 46 44 41 38 35 34
28 29 29 29 29 27 27 29 32 34 35 35 37 37 41 41 41 40 40 40 41 42 42 41 43 44 40 40 36 36 35 35
Wind_Direction
318 321 325 326 328 330 331 330 330 329 327 326 325 324 322 320 318 317 316 315 314 313 313 312 312 311 309 307 305 303 302 299
312 315 317 319 321 322 323 324 325 325 324 323 323 323 323 321 319 317 316 315 312 311 310 309 308 309 308 307 305 303 300 299
308 310 311 313 316 317 319 321 324 324 323 322 320 320 319 319 318 317 314 313 311 310 308 307 307 306 305 302 302 300 299 298
305 306 308 311 313 315 317 319 322 322 321 319 318 317 317 317 316 314 312 310 309 308 304 305 304 303 303 300 298 296 295 294
302 304 307 309 311 313 314 317 320 321 320 319 319 318 317 317 315 313 312 309 308 306 304 302 302 302 299 297 295 293 292 291
300 302 304 307 309 311 313 315 317 319 320 319 319 319 318 317 316 315 314 311 309 307 304 302 301 299 298 295 293 291 289 289
301 302 302 304 307 309 312 315 317 318 318 319 319 319 319 318 317 316 314 313 311 309 307 304 302 301 298 296 293 290 288 286
303 302 302 304 306 308 313 317 318 319 319 320 321 320 320 319 318 317 315 314 312 310 309 305 304 303 300 297 294 291 288 287
309 308 306 308 309 312 315 317 318 319 320 322 323 322 322 321 320 319 318 316 314 312 311 308 306 304 301 299 296 293 290 288
311 310 310 309 311 312 314 317 318 319 322 323 324 323 324 323 323 322 320 319 318 317 315 312 310 308 304 301 298 295 293 292
309 311 309 311 314 314 315 317 319 321 322 323 324 324 324 325 324 324 323 321 320 318 318 316 313 312 308 306 304 301 299 297
307 307 308 312 315 314 316 317 321 322 323 324 325 326 326 326 326 325 324 324 323 322 322 320 317 315 311 309 308 306 303 302
307 306 309 312 315 315 315 320 322 323 324 326 327 328 328 328 328 328 327 326 326 325 323 322 320 320 317 315 312 310 308 306
306 306 310 313 316 315 317 320 322 324 324 326 328 329 330 330 329 329 330 329 328 326 323 321 324 322 319 317 316 314 313 312
307 306 308 313 315 317 319 321 322 322 324 326 328 329 331 332 332 331 330 329 329 331 331 330 329 325 324 321 317 315 313 311
305 307 309 313 315 318 319 321 321 323 325 327 329 330 331 333 332 329 332 333 329 325 326 325 327 329 329 324 324 321 319 318
307 309 311 313 315 317 319 320 321 323 325 327 329 331 332 330 321 334 333 334 334 331 332 333 332 328 327 326 327 327 326 323
309 311 313 314 315 317 319 321 322 323 325 327 329 331 330 323 316 313 320 336 339 339 338 337 333 330 329 330 330 332 335 334
312 312 313 314 314 316 318 319 321 323 325 327 329 330 324 315 316 322 325 326 327 342 342 342 340 337 335 336 339 342 346 346
312 312 313 313 313 316 317 318 320 322 324 327 328 328 316 312 319 325 330 335 339 342 346 349 344 342 344 343 346 345 346 349